Location: Bílinka
(49.3579°N, 14.3767°E)
Time: 20:48:21
(UTC+00:00)

PSLV R/B - Pass Details

Date: 02 April 2025
Orbit: 410 x 442 km, 97.7° (Epoch: 28 April)

Event Time Altitude Azimuth Distance (km) Brightness Sun altitude
Exits shadow 19:56:47 40° 18° (NNE) 651 4.3 -21.7°
Drops below altitude 10° 19:59:08 10° 354° (N) 1,537 6.7 -22.0°
Sets 20:01:10 0° 351° (N) 2,401 7.8 -22.3°
